Regional Weather Roundup
Issued by NWS Bismarck, ND

Home | Current Version | Previous Version | Text Only | Print | Product List | Glossary On
Versions: 1 2 3 4 5 6 7 8 9 10 11 12 13 14 15 16 17 18 19 20 21 22 23 24 25 26 27 28 29 30 31 32 33 34 35 36 37 38 39 40 41 42 43 44 45 46 47 48 49 50
000
ASUS43 KBIS 271510
RWRBIS

NWR BROADCAST TEXT
NATIONAL WEATHER SERVICE BISMARCK ND
1000 AM CDT WED AUG 27 2014

NOTE: "FAIR" INDICATES FEW OR NO CLOUDS BELOW 12,000 FEET WITH NO
SIGNIFICANT WEATHER AND/OR OBSTRUCTIONS TO VISIBILITY.


CITY           SKY/WX    TMP DP  RH WIND       PRES   REMARKS
WILLISTON      SUNNY     62  55  77 SE6       30.10F
MINOT          SUNNY     63  53  70 S9        30.13S
MINOT AFB      SUNNY     62  59  88 SW6       30.12F
BISMARCK       PTSUNNY   55  55 100 E3        30.17F
DICKINSON      SUNNY     61  56  83 S8        30.14S
GARRISON         N/A     59  57  93 S6        30.15S
HETTINGER ARPT SUNNY     59  55  87 S7        30.17S
JAMESTOWN      MOSUNNY   58  56  93 E3        30.18S
BEACH            N/A     59  59 100 S10       30.14S
CARRINGTON     FAIR      59  59 100 S7        30.19S
CROSBY         FAIR      63  59  88 S9        30.09F
HARVEY         FAIR      63  57  82 SW7       30.16F
HAZEN          FAIR      55  54  94 N3        30.16F
LINTON         FAIR      63  59  88 SE7       30.16S
MANDAN         PTSUNNY   54  54 100 CALM      30.18S
OAKES            N/A     64  59  82 SE6       30.18S
RUGBY          FAIR      57  55  94 S3        30.16S
STANLEY        FAIR      57  57 100 S6        30.13F
TIOGA          FAIR      61  61 100 S6        30.15S
WATFORD CITY   FAIR      63  55  77 S8        30.11S
$$

CITY           SKY/WX    TMP DP  RH WIND       PRES   REMARKS
GRAND FORKS    SUNNY     61  55  81 S5        30.18S
GRAND FORKS AF SUNNY     62  58  86 VRB3      30.18S
DEVILS LAKE    SUNNY     61  50  67 S5        30.16S
FARGO          SUNNY     64  58  80 CALM      30.19S
CANDO          FAIR      59  55  88 SE6       30.17S
CAVALIER       FAIR      63  55  77 CALM      30.16S
GRAFTON        FAIR      61  57  88 CALM      30.17S
GWINNER        SUNNY     64  61  88 E7        30.20R
LANGDON        FAIR      63  55  77 SW7       30.16F
ROLLA          FAIR      61  55  82 SW9       30.16F
WALHALLA         N/A     64  57  77 SW6       30.15S
$$

CITY           SKY/WX    TMP DP  RH WIND       PRES   REMARKS
ABERDEEN       SUNNY     64  59  83 SE8       30.17S
MOBRIDGE       SUNNY     63  58  83 E7        30.12F
BUFFALO          N/A     58  55  90 S5        30.10F
RAPID CITY     SUNNY     64  55  72 N8        30.15F
GLASGOW        SUNNY     62  53  72 SE13      30.02F
SIDNEY         SUNNY     59  57  94 S3        30.12S
WOLF POINT     SUNNY     61  53  75 E6        30.06F
GLENDIVE       SUNNY     61  55  82 SE5       30.12F
MILES CITY     SUNNY     62  56  80 S10       30.09S
BAKER          SUNNY     63  56  78 SE12      30.15S
$$

CITY           SKY/WX    TMP DP  RH WIND       PRES   REMARKS
BILLINGS       MOSUNNY   60  50  69 SW10      30.12S
GREAT FALLS    SUNNY     65  45  48 S9        30.08S
REGINA         SUNNY     61  54  77 S10       30.02F
ESTEVAN        SUNNY     64  59  82 S8        30.09F
$$




USA.gov is the U.S. government's official web portal to all federal, state and local government web resources and services.